Weather Roundup
Issued by NWS Springfield, MO

Home | Current Version | Previous Version | Text Only | Print | Product List | Glossary On
Versions: 1 2 3 4 5 6 7 8 9 10 11 12 13 14 15 16 17 18 19 20 21 22 23 24 25 26 27 28 29 30 31 32 33 34 35 36 37 38 39 40 41 42 43 44 45 46 47 48 49 50
000
NZUS99 KSGF 020007
HRRSGF

HOURLY WEATHER
NATIONAL WEATHER SERVICE SPRINGFIELD MO
600 PM CST SUN FEB 01 2015

......SGF CWA......

CITY           SKY/WX    TMP DP  RH WIND       PRES   REMARKS
SPRINGFIELD    CLOUDY    26  20  77 NW16G28   29.94R WCI  14
6HR MIN TEMP:  26; 6HR MAX TEMP:  40; 6HR PCP: TRACE;

JOPLIN         CLOUDY    23  15  71 NW23G33   30.08R WCI   7
6HR MIN TEMP:  23; 6HR MAX TEMP:  35;

WEST PLAINS    CLOUDY    33  30  88 W16G25    29.84R WCI  23
6HR MIN TEMP:  33; 6HR MAX TEMP:  45; 6HR PCP:  0.03;

ROLLA          LGT SNOW  32  29  88 W21G29    29.79R FOG     WCI  20
6HR MIN TEMP:  32; 6HR MAX TEMP:  41; 6HR PCP:  0.03;

OSAGE BEACH    CLOUDY    30  25  80 W15G23    29.88R WCI  19
BRANSON        CLOUDY    28  25  86 NW12G23   29.94R WCI  18

......SURROUNDING SGF CWA......

CITY           SKY/WX    TMP DP  RH WIND       PRES   REMARKS
CHANUTE        FLURRIES  19  10  68 NW26G39   30.14R WCI   1
PARSONS        CLOUDY    21  12  68 NW21G36   30.15R WCI   5
COFFEYVILLE    CLOUDY    22  12  65 NW26G38   30.16R WCI   5
EMPORIA        FLURRIES  13   8  81 NW26G37   30.17R WCI  -7
GROVE OK       CLOUDY    28  19  69 NW23G30   30.12R WCI  14
ROGERS AR      CLOUDY    25  21  85 NW18G24   30.02R WCI  11
SILOAM SPRINGS CLOUDY   N/A N/A N/A NW20G25   30.06R
HARRISON AR    CLOUDY    29  25  85 NW15G25   29.93R WCI  18
NEAR YELLVILLE CLOUDY    34  25  69 W17G26    29.92R WCI  23

......KANSAS AND MISSOURI......

CITY           SKY/WX    TMP DP  RH WIND       PRES   REMARKS
KANSAS CTY INT LGT SNOW  19  14  81 NW20G31   30.06R WCI   3
DOWNTOWN KC    LGT SNOW  21  15  78 NW18G29   30.08R WCI   6
COLUMBIA       LGT SNOW  31  31 100 NW21      29.84R FOG     WCI  18
SEDALIA        LGT SNOW  28  24  85 NW20G29   29.94R FOG     WCI  15
ST JOSEPH      LGT SNOW  19  14  81 N24G35    30.12R WCI   2
ST LOUIS       FLURRIES  37  33  85 W14       29.73R WCI  28
SPIRIT OF STL  CLOUDY    36  32  85 W13       29.75R WCI  27
KIRKSVILLE     LGT SNOW  20  17  88 N22G30    29.94R FOG     WCI   3
WICHITA        FLURRIES  19   8  62 N30G40    30.22R WCI   0
TOPEKA         FLURRIES  15   7  70 NW21G32   30.18R WCI  -2
OLATHE         LGT SNOW  19  15  84 NW16G29   30.05R FOG     WCI   4

......TENNESSEE......

CITY           SKY/WX    TMP DP  RH WIND       PRES   REMARKS
MEMPHIS        CLOUDY    51  46  83 W8G22     29.77R
NASHVILLE      RAIN      55  53  93 SW13      29.66S FOG

......ARKANSAS.......

CITY           SKY/WX    TMP DP  RH WIND       PRES   REMARKS
FAYETTEVILLE   CLOUDY    26  20  77 NW21G29   30.04R WCI  12
FT SMITH       CLOUDY    34  23  64 W24G31    30.08R WCI  21
LITTLE ROCK    CLOUDY    44  31  60 NW23G29   29.92R

......OKLAHOMA.......

CITY           SKY/WX    TMP DP  RH WIND       PRES   REMARKS
TULSA          CLOUDY    27  14  58 NW24G33   30.17R WCI  12
PONCA CITY     MOCLDY    24  14  65 N21G30    30.21R WCI   9
MCALESTER      MOCLDY    35  23  61 NW18G24   30.15R WCI  24
OKLAHOMA CITY  PTCLDY    33  19  56 N25G35    30.18R WCI  20

......IOWA............

CITY           SKY/WX    TMP DP  RH WIND       PRES   REMARKS
DES MOINES     LGT SNOW  16  10  77 N20G31    30.10R BLWGSNOWWCI  -1
QUAD CITIES    LGT SNOW  17  12  80 N18G28    29.89R VSB 1   WCI   1

......ILLINOIS........

CITY           SKY/WX    TMP DP  RH WIND       PRES   REMARKS
QUINCY         MIX PCPN  25  21  85 N24       29.83R FOG     WCI   9
CHICAGO        SNOW      21  19  92 NE20G32   29.79R VSB 1/2 WCI   6



USA.gov is the U.S. government's official web portal to all federal, state and local government web resources and services.